Location: Huberhof
(49.2050°N, 7.4980°E)
Time: 00:22:04
(UTC+00:00)

Cosmos 1892 - Pass Details

Date: 29 October 2020
Orbit: 504 x 523 km, 82.5° (Epoch: 26 November)

Event Time Altitude Azimuth Distance (km) Brightness Sun altitude
Rises 16:53:29 0° 358° (N) 2,667 6.2 -7.1°
Reaches altitude 10° 16:55:50 10° 10° (N) 1,775 5.2 -7.5°
Maximum altitude 16:59:17 30° 72° (ENE) 971 3.5 -8.1°
Drops below altitude 10° 17:02:44 10° 135° (SE) 1,763 5.1 -8.6°
Sets 17:05:03 0° 146° (SE) 2,645 6.1 -9.0°
